Temp
61 61 61 60 60 60 60 60 61 61 61 61 62 62 62 62 62 70 76 78 78 72 74 77 79 77 78 76 76 73 69 64 64 66 69 76 75 80 80 81 82 83 84 86 84
60 60 60 60 60 60 60 60 60 61 61 61 61 61 61 61 73 78 79 75 74 74 78 77 76 77 76 74 75 74 69 65 70 72 72 74 74 77 77 77 79 80 85 86 86
60 60 60 60 60 59 59 59 60 60 61 61 61 61 61 64 77 78 77 75 74 76 78 76 76 77 72 74 71 68 68 69 71 73 74 73 74 78 76 73 79 78 81 83 85
59 60 60 59 59 59 59 59 60 60 61 61 61 61 62 72 64 82 76 75 74 78 79 79 76 72 69 68 69 68 69 71 73 74 72 71 75 74 77 79 81 81 81 81 82
59 59 59 59 59 59 59 59 59 59 59 60 61 62 71 74 75 81 76 76 79 80 79 76 74 70 68 68 69 68 69 71 73 71 71 71 72 74 75 79 81 81 79 80 81
59 58 58 59 59 58 58 58 58 58 59 60 61 62 74 69 84 82 82 80 82 81 78 79 75 74 70 68 68 68 68 70 72 72 71 71 71 69 75 76 77 77 79 80 79
58 58 58 58 58 58 58 58 57 58 59 61 63 68 72 76 83 82 83 82 82 81 77 80 79 75 71 68 70 68 67 69 70 71 71 72 68 70 77 77 78 79 80 81 81
58 58 58 58 58 58 58 58 57 59 60 61 64 69 71 83 81 82 81 82 81 80 79 81 80 75 71 71 68 65 65 63 69 70 70 71 64 72 78 75 75 77 79 79 81
58 58 58 58 58 58 57 56 58 61 62 63 68 71 71 80 79 82 83 81 82 79 80 80 77 69 70 66 63 63 59 59 63 69 68 68 64 73 78 74 72 75 77 78 78
58 57 58 58 58 57 56 57 61 63 66 69 72 68 75 75 80 82 81 82 79 77 75 73 70 68 66 66 56 57 58 59 59 67 66 66 66 72 75 73 71 73 75 75 76
58 57 57 58 58 56 61 69 73 70 69 71 72 70 73 80 81 81 82 80 77 74 66 66 64 61 63 63 63 61 59 58 63 67 62 64 65 68 73 71 70 72 73 74 75
57 57 57 57 57 56 62 73 71 72 63 72 71 71 76 79 71 76 83 74 71 65 65 63 60 67 65 62 60 59 58 59 62 65 62 64 63 68 71 70 71 72 72 73 75
56 57 57 57 55 62 68 72 74 73 64 67 71 69 72 76 69 72 78 73 68 63 63 60 64 66 64 62 59 60 58 59 59 61 63 59 60 62 69 69 71 71 70 71 71
56 56 56 55 63 64 71 72 72 73 58 63 68 73 73 74 68 78 80 75 68 64 62 63 66 63 62 61 63 57 65 63 59 56 53 59 50 61 65 64 68 70 70 71 71
56 56 56 54 60 69 69 70 72 73 46 66 69 80 74 72 72 72 78 74 67 65 64 62 63 61 60 63 64 61 63 61 59 57 53 57 51 59 59 62 67 70 70 70 71
55 56 55 57 58 66 68 69 73 58 45 62 70 67 67 70 71 72 72 75 71 65 64 65 67 66 67 65 65 64 60 56 54 55 47 55 53 57 60 63 66 69 70 70 72
55 55 56 60 66 67 68 71 57 48 64 59 60 64 63 63 66 67 66 63 61 55 56 61 63 68 67 62 62 62 58 49 46 45 46 52 49 57 65 67 69 70 71 71 72
52 52 56 63 66 63 69 63 47 55 56 63 62 62 59 64 64 63 61 59 62 61 58 54 51 60 66 64 61 59 58 49 38 42 49 50 47 57 67 71 70 71 72 70 71
51 58 65 68 67 66 66 51 52 54 60 58 60 56 56 60 60 59 59 59 62 62 55 52 52 62 64 65 65 56 52 58 51 46 44 52 56 61 66 65 66 68 69 70 70
49 54 63 66 65 67 61 49 54 59 59 60 52 56 51 55 55 57 57 62 61 63 63 58 49 59 62 64 60 59 61 49 50 38 38 47 47 53 59 63 68 67 68 69 70
53 57 67 65 67 64 54 51 54 61 59 55 54 52 54 52 55 55 56 62 63 63 62 60 53 54 56 56 57 54 53 52 52 49 42 41 49 60 61 65 64 67 67 68 69
49 54 65 62 59 52 49 50 51 56 59 56 56 54 50 52 50 52 52 57 61 62 57 60 53 48 53 60 58 59 56 55 43 44 46 46 46 65 65 65 64 67 68 70 70
46 48 61 62 47 46 49 50 53 53 52 52 51 52 52 49 45 50 50 59 58 56 54 56 49 43 47 52 53 51 54 53 49 47 43 41 48 60 63 64 65 64 68 69 70
49 47 53 53 50 45 43 45 47 54 50 51 50 50 47 45 50 45 48 55 55 56 56 54 49 47 41 48 53 48 51 51 48 40 44 46 50 58 60 61 64 64 65 67 66
45 41 42 44 45 42 43 44 43 42 48 50 47 44 42 39 41 43 46 48 52 54 51 47 37 43 47 49 47 47 48 50 44 47 42 49 50 57 60 61 62 63 62 61 62
43 43 45 43 41 43 42 42 40 41 42 42 41 42 43 38 41 38 43 44 43 50 48 45 34 38 37 45 44 40 40 41 43 47 48 50 50 59 61 60 58 58 59 59 61
43 44 43 41 40 41 43 41 41 42 45 46 43 41 40 43 46 46 47 47 46 43 43 43 38 34 32 44 43 35 45 48 49 52 51 45 54 59 56 54 55 57 58 58 60
MSLP
1018.21 1017.79 1017.40 1017.02 1016.69 1016.30 1015.88 1015.52 1015.17 1014.89 1014.62 1014.27 1013.95 1013.71 1013.50 1013.13 1012.56 1012.60 1011.72 1011.44 1011.40 1011.48 1011.45 1011.31 1011.15 1011.20 1011.11 1011.03 1011.28 1011.39 1010.89 1010.71 1010.74 1010.60 1010.41 1010.40 1009.82 1009.58 1009.61 1009.01 1008.86 1009.00 1009.08 1009.27 1009.49
1018.34 1017.88 1017.42 1016.97 1016.59 1016.23 1015.86 1015.43 1015.12 1014.78 1014.46 1014.13 1013.79 1013.47 1013.28 1013.06 1012.36 1011.56 1011.07 1011.15 1011.30 1011.33 1011.19 1011.03 1010.95 1010.96 1010.92 1011.15 1011.26 1010.96 1010.86 1010.86 1011.09 1010.89 1010.61 1010.47 1010.27 1009.80 1009.52 1009.29 1009.20 1009.27 1009.42 1009.51 1009.50
1018.41 1017.92 1017.41 1016.97 1016.53 1016.14 1015.77 1015.41 1015.06 1014.71 1014.37 1014.03 1013.73 1013.42 1013.13 1012.93 1012.00 1011.13 1010.87 1011.02 1011.17 1011.24 1011.20 1011.18 1011.03 1010.80 1010.99 1011.31 1011.49 1011.35 1010.94 1011.31 1011.20 1011.10 1010.99 1010.72 1010.28 1010.05 1009.62 1009.27 1009.13 1009.27 1009.44 1009.58 1009.59
1018.43 1017.96 1017.45 1016.94 1016.48 1016.08 1015.67 1015.29 1014.95 1014.65 1014.31 1013.96 1013.65 1013.34 1012.92 1012.56 1011.72 1010.84 1010.86 1011.03 1011.17 1011.15 1011.03 1010.96 1010.84 1010.79 1011.08 1011.28 1011.71 1011.40 1011.48 1011.41 1011.24 1011.26 1011.19 1010.81 1010.45 1009.88 1009.60 1009.11 1009.51 1009.58 1009.58 1009.64 1009.51
1018.44 1017.93 1017.40 1016.88 1016.39 1015.91 1015.55 1015.15 1014.78 1014.45 1014.21 1013.95 1013.59 1013.17 1012.78 1011.99 1010.99 1010.83 1010.89 1011.06 1011.11 1011.03 1010.88 1010.81 1010.74 1011.03 1011.07 1011.48 1011.66 1011.40 1011.48 1011.43 1011.28 1011.37 1011.19 1011.08 1010.47 1010.05 1009.68 1009.62 1009.50 1009.55 1009.66 1009.44 1009.35
1018.47 1017.92 1017.31 1016.79 1016.24 1015.69 1015.28 1014.93 1014.57 1014.25 1013.95 1013.73 1013.53 1013.10 1012.47 1011.37 1010.38 1010.61 1010.63 1010.89 1010.84 1010.82 1010.88 1010.82 1010.87 1011.15 1011.24 1011.45 1011.49 1011.68 1011.50 1011.24 1011.07 1010.98 1011.01 1010.77 1010.44 1010.49 1009.95 1009.92 1009.61 1009.50 1009.32 1009.30 1009.12
1018.39 1017.83 1017.22 1016.62 1016.05 1015.48 1014.97 1014.59 1014.27 1013.96 1013.79 1013.57 1013.46 1013.16 1012.24 1010.80 1010.27 1010.44 1010.49 1010.51 1010.65 1010.73 1010.79 1010.93 1011.01 1011.09 1011.38 1011.43 1011.76 1011.63 1011.22 1011.03 1010.94 1010.87 1010.65 1010.57 1010.03 1009.75 1009.62 1009.61 1009.15 1008.91 1008.81 1008.67 1008.58
1018.32 1017.62 1016.96 1016.30 1015.72 1015.17 1014.59 1014.16 1013.81 1013.59 1013.41 1013.40 1013.35 1013.05 1011.42 1010.22 1010.38 1010.35 1010.39 1010.42 1010.69 1010.86 1010.94 1011.00 1011.12 1011.29 1011.44 1011.70 1011.66 1011.36 1011.29 1010.70 1010.77 1010.67 1010.61 1010.35 1009.41 1009.43 1009.35 1009.41 1009.01 1008.81 1008.48 1008.39 1008.16
1018.33 1017.52 1016.70 1015.87 1015.27 1014.73 1014.23 1013.74 1013.31 1013.12 1013.19 1013.24 1013.27 1012.61 1010.79 1010.02 1010.10 1009.99 1010.03 1010.06 1010.31 1010.76 1010.93 1011.09 1011.20 1011.64 1011.79 1011.45 1011.33 1011.30 1010.80 1010.85 1010.60 1010.69 1010.47 1010.21 1009.43 1009.24 1009.13 1009.07 1008.83 1008.47 1008.13 1008.01 1007.96
1018.28 1017.39 1016.50 1015.63 1014.83 1014.21 1013.67 1013.43 1013.25 1013.09 1013.25 1013.08 1012.74 1012.49 1010.63 1009.94 1009.65 1009.74 1009.99 1010.10 1010.21 1010.60 1010.91 1011.18 1011.44 1011.53 1011.69 1011.29 1010.73 1010.88 1010.88 1010.91 1010.74 1010.65 1010.50 1009.93 1009.19 1008.78 1008.47 1008.48 1008.15 1008.01 1007.96 1007.85 1007.69
1018.23 1017.18 1016.19 1015.39 1014.55 1013.94 1013.13 1013.17 1013.45 1013.12 1012.67 1011.64 1011.13 1010.55 1010.15 1009.81 1009.72 1009.39 1009.63 1009.91 1010.25 1010.51 1010.81 1011.47 1011.26 1010.92 1011.03 1011.23 1011.21 1011.11 1010.97 1010.77 1010.70 1010.65 1010.70 1009.90 1009.19 1008.67 1008.05 1008.02 1007.78 1007.81 1007.75 1007.55 1007.37
1018.16 1017.10 1015.91 1015.09 1014.32 1013.77 1013.35 1012.85 1013.04 1013.17 1012.02 1010.73 1010.41 1010.31 1010.03 1009.97 1009.77 1009.43 1009.51 1009.80 1010.10 1010.35 1011.09 1011.39 1010.70 1010.67 1011.01 1011.21 1011.27 1011.17 1010.93 1010.69 1010.63 1010.53 1010.70 1009.67 1008.86 1008.37 1007.89 1007.87 1007.69 1007.51 1007.43 1007.48 1007.31
1017.86 1016.85 1015.75 1014.52 1013.93 1013.50 1013.33 1012.72 1012.59 1012.54 1012.04 1010.31 1009.81 1009.52 1009.46 1009.81 1009.76 1009.32 1009.46 1009.59 1009.90 1010.31 1010.62 1010.65 1010.36 1010.56 1010.73 1010.86 1010.91 1010.81 1010.66 1010.52 1010.57 1010.61 1010.51 1010.07 1008.55 1007.94 1007.55 1007.76 1007.62 1007.49 1007.54 1007.47 1007.42
1017.69 1016.74 1015.73 1014.58 1013.93 1013.79 1013.21 1012.86 1012.55 1012.29 1011.47 1009.96 1009.27 1008.87 1009.22 1009.29 1009.37 1008.89 1009.06 1009.23 1009.86 1010.05 1010.60 1010.52 1010.34 1010.35 1010.37 1010.34 1010.41 1010.15 1010.11 1010.32 1010.52 1010.66 1010.06 1010.39 1008.41 1007.63 1007.26 1007.25 1007.21 1007.13 1007.17 1007.23 1007.27
1017.49 1016.37 1015.53 1015.01 1014.48 1013.71 1013.29 1012.83 1012.29 1012.21 1011.12 1009.39 1008.72 1008.42 1008.89 1009.07 1008.93 1008.95 1009.04 1009.16 1009.25 1009.76 1010.45 1009.81 1009.92 1010.04 1009.96 1009.76 1010.05 1009.75 1010.15 1010.33 1010.43 1010.38 1010.56 1009.89 1009.53 1007.29 1007.42 1006.68 1006.54 1006.77 1007.03 1007.25 1007.40
1017.23 1016.03 1015.47 1014.83 1014.88 1013.61 1013.09 1012.56 1012.39 1012.03 1010.42 1009.23 1008.89 1008.91 1009.09 1008.89 1008.74 1008.89 1009.00 1009.19 1009.59 1009.80 1010.02 1009.65 1010.00 1009.76 1009.31 1009.52 1009.77 1010.07 1010.41 1010.85 1011.13 1010.84 1009.91 1008.99 1008.97 1006.96 1006.59 1006.15 1006.28 1006.57 1006.95 1007.27 1007.41
1017.05 1015.91 1015.47 1015.06 1014.15 1013.55 1013.13 1012.53 1012.47 1011.75 1010.45 1010.24 1009.94 1009.81 1009.73 1009.37 1009.04 1008.93 1009.00 1009.23 1009.28 1009.63 1009.53 1009.36 1009.27 1009.15 1009.32 1009.43 1010.01 1010.01 1010.16 1010.17 1010.25 1010.32 1009.23 1009.43 1008.93 1006.74 1006.16 1006.13 1006.02 1006.12 1006.63 1007.11 1007.38
1016.91 1015.72 1015.31 1014.67 1014.09 1013.87 1012.99 1012.75 1012.54 1011.69 1011.11 1010.99 1010.75 1010.29 1010.04 1009.60 1009.29 1009.21 1009.17 1008.99 1009.16 1009.29 1009.05 1008.88 1008.67 1008.78 1008.72 1008.73 1008.91 1009.41 1009.73 1009.77 1009.59 1009.51 1009.06 1009.67 1007.57 1006.13 1005.83 1005.80 1006.08 1006.23 1006.60 1006.96 1007.32
1016.81 1015.64 1014.99 1014.39 1014.00 1013.61 1013.29 1013.18 1012.75 1012.54 1012.22 1011.71 1011.09 1010.72 1010.49 1010.39 1010.27 1009.85 1009.45 1009.11 1008.94 1009.09 1009.14 1008.93 1008.69 1008.70 1008.66 1008.57 1008.87 1009.78 1010.00 1010.27 1009.93 1010.60 1009.63 1007.99 1006.84 1006.47 1005.81 1005.87 1005.93 1006.03 1006.44 1006.73 1007.32
1018.13 1016.80 1015.21 1014.62 1014.09 1013.66 1013.66 1013.77 1013.68 1013.67 1013.19 1012.54 1012.21 1011.95 1011.67 1011.48 1011.27 1010.78 1009.97 1009.51 1009.33 1009.39 1009.41 1009.27 1009.06 1008.92 1008.84 1009.02 1009.48 1009.18 1009.61 1010.41 1010.57 1009.74 1008.39 1007.10 1006.67 1005.43 1005.26 1005.18 1005.30 1005.65 1006.08 1006.56 1007.02
1018.31 1016.91 1015.29 1014.67 1013.98 1014.01 1014.38 1014.95 1014.66 1014.41 1014.20 1013.77 1013.38 1013.10 1012.83 1012.60 1012.13 1011.57 1010.72 1010.23 1009.96 1009.68 1009.81 1009.79 1009.88 1009.43 1009.62 1008.99 1008.69 1009.69 1009.57 1010.00 1010.21 1009.76 1008.62 1007.00 1005.47 1005.53 1005.19 1005.10 1005.31 1005.69 1006.26 1006.55 1006.76
1019.48 1017.65 1015.74 1014.75 1015.02 1016.20 1016.43 1016.79 1016.36 1015.41 1015.30 1014.97 1014.62 1014.37 1014.30 1014.06 1013.49 1012.79 1011.92 1011.50 1011.63 1011.10 1010.42 1010.45 1010.32 1009.70 1009.25 1009.13 1009.29 1009.09 1008.97 1009.40 1009.73 1009.41 1009.23 1008.01 1004.94 1005.43 1005.40 1005.60 1005.84 1005.80 1006.20 1006.63 1006.81
1020.85 1019.64 1016.86 1015.91 1017.25 1018.17 1018.38 1017.84 1017.25 1016.77 1016.63 1016.32 1016.07 1016.07 1016.08 1015.53 1014.98 1013.92 1013.36 1012.87 1012.81 1012.61 1012.31 1011.87 1011.53 1010.48 1009.55 1009.86 1009.81 1009.33 1009.31 1009.52 1009.91 1010.02 1008.58 1007.97 1005.46 1005.75 1005.75 1005.75 1006.11 1006.17 1006.19 1006.21 1006.15
1021.59 1020.71 1019.38 1018.92 1020.10 1020.04 1019.73 1018.93 1018.27 1018.09 1018.03 1018.09 1017.79 1017.61 1017.44 1017.00 1016.46 1015.47 1014.69 1013.79 1013.89 1013.44 1013.26 1012.93 1012.28 1011.48 1010.19 1009.56 1009.35 1009.10 1009.23 1009.65 1009.74 1009.43 1008.31 1006.84 1006.08 1005.47 1005.65 1005.77 1005.92 1006.26 1006.54 1006.66 1006.57
1023.00 1023.13 1022.95 1021.32 1020.84 1021.27 1020.97 1020.30 1019.63 1019.43 1019.38 1019.21 1018.79 1019.11 1019.13 1018.38 1017.51 1016.47 1016.00 1015.50 1014.95 1014.37 1014.17 1014.23 1013.80 1012.93 1011.74 1011.17 1010.60 1010.01 1009.49 1009.33 1009.58 1008.90 1008.14 1005.64 1006.09 1003.87 1005.45 1005.66 1006.00 1006.31 1006.62 1006.74 1006.53
1024.47 1024.34 1023.60 1022.71 1022.36 1021.62 1021.39 1020.97 1020.73 1020.73 1020.72 1020.03 1019.81 1019.98 1019.90 1019.39 1018.74 1017.75 1017.35 1016.93 1015.87 1015.14 1014.90 1015.23 1014.65 1013.79 1012.49 1011.95 1011.07 1010.15 1010.10 1009.85 1009.27 1008.50 1007.63 1006.59 1004.52 1005.23 1005.59 1006.30 1006.44 1006.65 1006.74 1006.68 1006.64
1025.67 1025.53 1024.54 1023.41 1022.79 1022.34 1021.81 1021.73 1021.49 1021.63 1020.85 1020.48 1020.55 1020.41 1019.73 1019.15 1019.03 1018.50 1018.00 1017.33 1016.50 1015.78 1015.10 1015.03 1014.73 1014.25 1012.48 1011.82 1011.03 1009.78 1007.96 1007.28 1006.95 1006.59 1006.24 1005.91 1004.05 1005.69 1006.01 1006.68 1006.92 1006.89 1006.97 1006.91 1006.79
Wind_Speed
17 15 13 12 12 12 12 12 12 11 11 12 13 12 11 12 9 3 2 1 2 1 2 1 3 3 2 4 3 2 3 5 6 6 4 1 1 3 2 4 4 3 3 2 4
19 17 16 15 13 12 13 13 13 13 12 12 12 12 12 11 1 3 1 5 2 2 2 3 3 2 4 3 3 1 1 4 2 3 3 0 1 2 2 3 2 2 1 2 2
20 19 18 16 15 14 13 13 13 12 13 12 12 11 11 7 1 1 6 6 5 3 3 2 3 3 4 1 3 2 3 4 4 3 2 2 4 4 4 4 3 3 2 3 3
21 20 19 18 16 14 14 14 13 13 12 12 12 10 12 2 3 1 7 6 5 2 3 6 3 3 3 3 2 3 2 3 4 4 3 3 3 4 8 4 2 2 6 4 6
21 21 20 19 18 15 14 14 13 13 13 12 11 11 2 1 2 3 7 7 3 0 4 4 8 2 4 2 2 1 1 4 4 6 6 1 7 6 5 5 6 5 6 8 8
20 20 20 20 19 17 14 13 12 12 12 11 11 12 1 2 2 3 6 5 1 1 2 2 3 2 4 2 1 1 3 6 2 3 2 4 2 4 4 3 1 2 3 5 8
22 21 20 19 18 17 15 13 12 12 11 8 7 4 0 4 3 3 2 1 3 2 1 1 4 1 2 3 1 0 1 1 1 2 2 4 5 4 1 5 10 9 9 10 8
23 23 22 20 19 18 17 14 14 13 8 4 3 1 5 1 2 5 3 2 3 2 1 2 3 3 1 2 2 1 1 3 2 4 2 3 9 5 6 8 13 13 13 12 13
24 24 23 23 20 19 17 17 9 2 3 4 2 1 5 5 3 1 3 2 4 4 3 6 3 3 1 1 3 2 2 1 3 0 2 2 7 8 13 13 13 14 13 12 11
25 25 25 23 22 20 17 5 5 6 2 2 1 2 4 3 1 1 3 2 2 5 4 2 3 2 2 3 4 3 3 2 4 1 3 8 15 14 15 13 14 13 13 11 11
26 26 26 24 22 19 4 2 2 1 2 5 3 2 2 2 2 2 4 6 3 3 1 2 5 6 4 5 3 3 4 5 6 6 5 11 15 16 18 11 9 8 8 9 10
26 27 27 26 24 13 2 3 3 2 10 9 13 9 7 1 3 3 5 5 5 5 3 3 8 7 2 2 5 4 5 8 7 8 5 11 16 17 13 7 5 7 5 6 8
28 28 27 28 25 2 3 3 2 3 4 6 3 3 4 10 6 5 10 4 4 5 6 6 1 7 4 5 5 5 7 8 10 2 5 8 13 5 3 6 5 3 3 4 7
29 27 27 30 2 3 2 6 7 5 3 3 1 3 5 5 5 7 8 5 4 8 5 6 1 8 6 5 6 10 10 9 8 5 9 1 8 12 9 7 5 2 4 5 6
31 29 25 9 4 2 4 10 2 2 5 1 3 5 3 5 1 4 3 3 11 9 6 4 6 7 8 9 8 7 3 6 4 7 5 9 7 4 3 4 3 0 2 3 3
32 31 22 3 1 5 10 6 1 0 5 3 3 2 2 3 2 3 3 3 2 6 7 13 1 4 7 2 8 5 4 2 1 3 9 9 9 5 4 4 5 4 4 3 3
34 30 10 3 4 8 9 0 1 4 4 4 4 6 5 3 3 4 5 7 8 5 9 7 13 7 5 8 4 6 6 5 5 6 5 3 7 11 7 9 7 7 7 5 3
34 21 2 3 9 7 1 2 4 1 2 3 6 6 3 4 4 2 3 7 7 7 9 8 9 8 9 12 8 11 10 6 5 5 6 5 9 5 12 13 10 7 6 4 1
27 5 3 10 5 2 2 1 2 1 5 7 9 4 1 2 2 3 4 5 3 10 10 6 8 2 6 5 8 6 8 3 9 1 7 9 10 10 11 8 7 11 9 8 5
7 5 4 16 5 1 2 2 2 6 7 3 4 2 5 10 10 7 4 1 2 5 4 3 8 5 3 4 3 6 11 5 3 6 11 7 9 10 8 11 15 13 11 6 5
3 4 7 17 2 2 1 2 4 8 15 7 6 8 10 9 9 12 7 8 4 5 4 5 6 5 2 8 14 6 6 4 5 6 9 12 8 4 8 7 3 8 3 4 3
4 3 8 11 3 3 3 6 7 9 11 6 4 5 4 7 6 7 6 5 21 13 6 3 4 12 15 4 2 9 15 15 8 12 8 12 17 6 10 1 3 3 5 8 10
4 4 6 7 5 5 5 5 4 9 9 7 5 8 7 5 7 4 5 12 14 14 9 5 5 13 12 7 4 9 9 7 4 3 18 13 7 4 7 5 5 7 15 18 17
2 5 4 5 4 4 5 3 7 6 3 8 7 4 9 6 6 10 14 7 17 9 16 10 13 19 17 16 2 9 14 13 12 8 13 20 22 22 19 21 19 16 15 17 17
5 2 2 5 3 4 3 3 5 5 8 8 2 6 6 6 14 10 9 16 12 14 6 5 7 12 18 13 7 7 10 13 16 22 19 26 24 28 19 19 16 14 10 9 12
2 3 2 3 5 6 2 1 2 2 5 7 3 7 7 10 14 20 16 13 12 10 5 1 5 7 10 18 20 20 15 21 24 27 23 29 34 18 14 8 7 5 6 7 7
2 1 2 1 1 2 1 2 5 9 5 6 4 13 14 16 11 16 17 18 21 21 21 16 6 3 8 14 15 13 25 25 27 24 23 23 30 14 12 4 3 7 9 11 11
Wind_Direction
7 3 358 351 344 336 331 326 323 322 320 316 319 322 329 329 313 170 68 88 140 336 303 145 70 103 103 81 62 156 117 154 151 160 115 10 1 7 348 5 28 56 78 25 17
6 2 358 354 345 341 331 327 324 320 317 315 318 321 328 334 316 69 148 161 187 2 49 89 114 120 80 60 50 39 163 147 146 147 125 331 279 313 298 354 138 1 344 328 328
4 0 357 352 347 339 333 328 324 319 314 311 314 316 317 319 119 64 169 167 156 95 82 70 92 78 76 34 24 109 97 158 163 213 185 238 271 203 217 242 269 289 223 295 243
0 357 354 349 345 339 332 326 322 318 313 309 311 312 311 252 160 130 162 159 149 134 113 51 54 83 94 91 3 150 125 151 173 186 206 226 265 238 222 246 55 257 280 264 253
355 353 350 346 342 338 329 324 319 315 313 311 312 319 264 113 180 130 140 138 121 251 51 51 53 114 119 122 143 112 130 247 266 252 228 253 246 227 248 297 303 258 236 263 274
350 348 345 343 338 333 325 316 309 306 308 309 315 315 308 146 107 71 165 163 133 48 47 28 64 117 90 93 49 335 268 289 294 62 202 246 184 197 173 291 226 296 286 275 269
347 344 342 337 334 329 321 313 303 299 298 299 312 326 73 228 120 46 156 204 165 150 6 84 139 44 136 146 28 123 235 98 245 350 130 287 185 219 282 301 317 319 313 305 298
344 341 339 335 332 327 320 311 301 292 273 264 287 257 256 160 140 281 179 200 200 203 219 188 137 97 327 116 76 136 124 194 123 337 132 302 280 291 295 306 305 301 294 290 286
343 340 337 333 333 329 320 310 296 258 169 171 184 253 262 319 252 65 202 197 109 102 97 91 96 66 153 129 161 53 174 264 309 316 328 303 291 272 287 289 282 279 280 278 277
343 338 335 333 333 333 321 284 123 131 122 178 89 255 246 178 150 167 157 160 122 121 110 65 71 162 133 226 230 183 213 206 272 165 246 278 288 295 294 299 283 283 281 278 271
341 338 334 335 334 334 345 159 272 163 183 230 196 208 257 270 263 192 150 134 131 101 195 56 232 233 261 226 268 228 213 248 258 280 265 271 285 290 302 306 274 262 267 277 274
340 337 332 335 333 327 265 68 86 354 296 255 258 256 263 335 314 259 169 178 186 215 143 201 238 216 197 176 199 208 239 258 283 266 245 281 282 288 282 284 300 309 300 288 293
339 338 334 330 326 314 349 125 345 192 273 299 225 193 197 180 225 256 183 170 194 191 205 243 316 152 212 173 193 210 237 254 266 296 246 289 276 271 239 263 280 281 316 305 309
336 336 333 327 279 336 330 350 322 201 316 279 239 151 124 153 213 206 195 161 185 240 184 253 126 208 188 239 223 258 226 244 247 230 277 319 288 280 291 281 246 301 5 356 351
334 333 335 323 315 256 345 325 250 227 310 94 106 128 138 201 73 172 182 156 218 191 191 227 195 197 221 245 189 271 201 225 230 244 273 239 256 258 278 260 212 25 54 38 21
335 333 336 74 269 290 324 306 254 313 254 38 79 71 168 239 239 115 156 97 61 212 226 264 322 214 248 202 211 121 148 85 94 244 252 262 228 232 220 214 177 178 168 131 101
335 330 329 311 337 333 321 15 135 213 354 21 33 349 331 282 283 215 220 194 223 213 231 227 238 245 213 238 169 182 189 252 229 202 257 152 226 257 233 226 225 184 167 167 152
334 325 290 268 307 312 298 78 210 329 306 28 343 321 284 309 258 252 220 239 218 227 259 252 250 198 179 221 219 196 214 224 270 242 276 145 239 236 246 248 246 230 195 212 172
328 337 342 344 341 325 59 162 257 243 354 329 320 301 300 32 295 303 237 248 253 203 224 218 242 253 216 169 193 160 212 304 268 164 258 243 251 271 240 235 227 217 212 223 189
326 328 334 339 332 352 95 237 327 24 321 307 305 306 333 323 316 310 287 127 278 210 220 215 267 202 180 157 84 221 149 194 202 254 260 230 257 249 235 234 221 219 221 196 184
348 355 353 339 259 48 244 28 328 23 22 348 345 305 301 309 294 285 273 296 261 214 214 179 237 238 211 213 231 190 210 205 269 252 262 279 255 207 257 215 212 222 234 210 274
343 360 346 333 54 34 42 335 315 347 12 351 328 346 4 340 302 292 290 310 6 330 242 256 235 255 249 215 278 250 244 221 220 227 245 278 273 219 259 258 226 267 292 307 293
10 303 330 341 61 34 341 319 325 359 355 1 332 22 9 319 314 292 328 332 360 7 332 305 267 275 246 229 190 225 207 223 240 263 244 247 256 154 189 232 237 267 299 303 306
351 351 349 42 51 42 357 330 334 10 90 3 336 37 356 339 319 315 300 313 330 319 345 355 273 248 256 263 278 208 211 207 206 212 240 239 266 256 265 275 285 288 289 285 279
7 59 22 339 36 11 281 289 316 357 15 19 289 40 356 294 302 277 310 315 308 313 344 57 281 294 289 286 299 276 257 231 221 246 254 266 263 269 275 291 295 299 288 276 283
21 348 6 307 315 330 4 59 352 25 333 309 272 336 319 281 283 294 296 297 292 293 333 18 262 282 270 269 271 277 264 261 258 256 253 259 263 274 301 295 281 281 297 291 307
33 109 283 18 356 297 312 40 314 342 300 219 313 309 291 287 304 291 281 270 262 269 271 261 243 277 263 293 290 261 243 240 241 244 243 245 261 307 279 261 314 312 309 302 303